User: anonymous   Login
Location: Unspecified
(0.0000°N, 0.0000°E)
Time: 00:19:35
(UTC+00:00)
Language:

DMSP 5D-3 F18 (USA 210) - Orbit

View from above orbital plane
View from above orbital plane
View from above satellite
View from above satellite

Ground track
Ground track

The orbit data is extracted from the following two-line orbital elements,

1 35951U 09057A   17084.68287147 0.00000070  00000-0  37491-4 0    05
2 35951  98.6233 102.7801 0010806 145.7690 214.2309 14.13106343    09
Epoch (UTC): 25 March 2017 16:23:20
Eccentricity: 0.0010806
inclination: 98.6233°
perigee height: 841 km
apogee height: 856 km
right ascension of ascending node: 102.7801°
argument of perigee: 145.7690°
revolutions per day: 14.13106343
mean anomaly at epoch: 214.2309°
orbit number at epoch: 0

The dashed part of the orbit path shows where the satellite is in the earth's shadow,  

DLR